Temp
-12 -12 -12 -13 -12 -12 -13 -13 -13 -13 -13 -14 -13 -13 -14 -14 -13 -13 -13 -13 -13 -13 -13 -13 -13 -13 -13 -13 -13 -13 -13 -12 -12 -12 -12 -11 -11 -11 -11 -11 -11 -11 -12
-12 -12 -12 -13 -12 -12 -12 -12 -13 -13 -13 -13 -13 -13 -14 -14 -13 -13 -13 -13 -13 -13 -13 -13 -12 -12 -12 -12 -13 -13 -12 -13 -12 -12 -12 -12 -11 -12 -12 -12 -12 -12 -12
-12 -12 -12 -12 -12 -12 -12 -12 -13 -13 -13 -14 -13 -13 -13 -13 -14 -13 -13 -13 -13 -13 -12 -13 -13 -12 -12 -12 -12 -12 -12 -12 -12 -12 -12 -12 -12 -12 -12 -12 -12 -12 -12
-12 -12 -12 -12 -12 -12 -12 -12 -13 -13 -13 -13 -14 -14 -13 -13 -13 -13 -13 -13 -13 -13 -13 -13 -13 -13 -12 -12 -12 -12 -12 -12 -12 -12 -12 -12 -12 -12 -12 -12 -12 -12 -12
-12 -12 -12 -12 -12 -12 -12 -12 -13 -13 -13 -14 -13 -14 -14 -14 -13 -13 -13 -13 -13 -13 -13 -13 -13 -12 -12 -12 -12 -11 -11 -12 -12 -12 -12 -12 -12 -12 -12 -12 -12 -12 -13
-12 -12 -12 -12 -12 -13 -13 -13 -13 -13 -13 -13 -13 -13 -13 -14 -14 -14 -13 -14 -13 -13 -13 -13 -12 -12 -12 -12 -12 -11 -11 -12 -12 -12 -12 -12 -12 -12 -12 -12 -12 -12 -13
-12 -12 -12 -12 -12 -13 -13 -13 -13 -13 -13 -13 -13 -13 -13 -13 -13 -13 -13 -13 -13 -13 -13 -13 -13 -12 -12 -12 -11 -11 -11 -11 -11 -12 -12 -12 -12 -12 -12 -12 -13 -13 -13
-11 -12 -12 -12 -12 -13 -13 -14 -14 -13 -13 -13 -13 -13 -13 -13 -13 -13 -13 -13 -12 -13 -13 -12 -13 -12 -12 -12 -12 -11 -12 -12 -12 -12 -12 -12 -12 -13 -14 -13 -13 -13 -13
-11 -12 -12 -12 -12 -13 -13 -14 -13 -13 -14 -13 -13 -13 -13 -13 -13 -13 -13 -13 -13 -13 -13 -12 -12 -12 -12 -12 -11 -12 -12 -12 -12 -12 -13 -13 -13 -13 -13 -13 -13 -13 -12
-12 -12 -12 -12 -12 -12 -13 -13 -13 -14 -14 -13 -13 -13 -13 -13 -13 -12 -12 -13 -12 -13 -13 -13 -12 -12 -12 -12 -12 -12 -13 -13 -13 -13 -13 -13 -13 -13 -13 -13 -13 -13 -13
-12 -12 -12 -12 -12 -13 -13 -13 -13 -13 -14 -13 -13 -13 -13 -13 -13 -13 -13 -13 -12 -13 -13 -13 -13 -13 -13 -13 -13 -13 -13 -13 -12 -12 -12 -13 -13 -13 -13 -13 -13 -14 -14
-12 -12 -12 -13 -13 -13 -13 -13 -13 -13 -13 -13 -13 -13 -13 -13 -13 -13 -13 -13 -13 -13 -13 -13 -13 -13 -13 -13 -13 -13 -13 -13 -13 -13 -13 -13 -13 -13 -13 -14 -14 -14 -14
-12 -12 -12 -13 -13 -13 -13 -13 -13 -13 -13 -13 -13 -13 -13 -13 -13 -13 -13 -13 -13 -14 -14 -13 -13 -13 -13 -13 -13 -13 -13 -13 -13 -13 -13 -13 -14 -14 -14 -14 -14 -14 -15
-12 -12 -12 -13 -13 -13 -13 -13 -13 -13 -13 -13 -13 -13 -13 -13 -13 -13 -13 -13 -13 -13 -13 -13 -13 -13 -13 -13 -13 -13 -13 -13 -13 -14 -14 -14 -14 -14 -14 -14 -14 -15 -15
-12 -12 -12 -12 -13 -13 -13 -13 -13 -13 -13 -13 -13 -13 -13 -13 -13 -13 -13 -13 -13 -13 -13 -13 -13 -13 -13 -13 -14 -14 -14 -14 -14 -14 -14 -14 -14 -14 -14 -14 -14 -14 -15
-12 -12 -12 -12 -12 -13 -13 -13 -12 -13 -13 -13 -13 -13 -13 -13 -13 -13 -13 -13 -13 -13 -13 -13 -13 -13 -13 -14 -14 -14 -14 -14 -14 -14 -14 -14 -14 -14 -14 -14 -14 -14 -15
-12 -12 -12 -12 -12 -12 -12 -13 -13 -13 -13 -12 -12 -13 -13 -13 -13 -13 -13 -13 -13 -13 -13 -13 -13 -13 -14 -14 -14 -14 -14 -14 -14 -14 -14 -14 -14 -14 -14 -14 -15 -15 -15
-12 -12 -12 -12 -12 -12 -12 -12 -13 -13 -13 -13 -13 -13 -13 -13 -13 -13 -13 -13 -13 -13 -13 -13 -13 -14 -14 -14 -14 -14 -14 -14 -14 -14 -14 -14 -14 -14 -14 -14 -15 -15 -15
-12 -12 -12 -12 -12 -12 -12 -13 -13 -13 -13 -13 -13 -13 -13 -13 -13 -13 -13 -13 -13 -13 -13 -13 -14 -14 -14 -14 -14 -14 -14 -14 -14 -14 -14 -14 -14 -14 -14 -14 -14 -15 -15
-12 -12 -12 -12 -12 -12 -12 -13 -13 -13 -13 -13 -13 -13 -13 -13 -13 -13 -13 -13 -13 -13 -13 -13 -13 -13 -14 -14 -14 -14 -14 -14 -14 -14 -14 -14 -14 -14 -14 -14 -15 -15 -15
-12 -12 -12 -12 -12 -12 -12 -12 -13 -13 -13 -13 -13 -13 -13 -14 -14 -14 -14 -13 -13 -13 -13 -13 -13 -14 -14 -14 -14 -14 -14 -14 -14 -14 -14 -14 -15 -15 -15 -15 -15 -15 -15
-12 -12 -12 -13 -13 -13 -13 -13 -13 -13 -13 -13 -13 -13 -13 -13 -13 -13 -13 -13 -14 -14 -14 -14 -14 -14 -14 -14 -14 -14 -14 -14 -14 -14 -14 -15 -15 -15 -15 -15 -15 -15 -15
-12 -13 -12 -13 -13 -13 -13 -13 -13 -13 -13 -13 -13 -14 -14 -14 -14 -14 -14 -14 -14 -14 -14 -14 -14 -14 -14 -14 -14 -14 -14 -14 -14 -14 -14 -14 -15 -15 -15 -15 -15 -15 -15
-12 -12 -12 -12 -13 -13 -12 -12 -13 -13 -13 -13 -13 -13 -14 -14 -14 -14 -14 -14 -14 -14 -14 -14 -14 -14 -14 -14 -14 -14 -14 -15 -15 -15 -15 -15 -15 -15 -15 -15 -15 -15 -16
-13 -13 -12 -13 -13 -12 -13 -13 -13 -13 -13 -13 -13 -13 -14 -13 -13 -13 -14 -14 -14 -14 -14 -14 -14 -14 -14 -14 -14 -14 -14 -15 -15 -15 -15 -15 -15 -15 -15 -16 -15 -15 -16
-14 -13 -14 -13 -13 -13 -13 -13 -13 -13 -13 -13 -13 -13 -13 -13 -13 -13 -14 -14 -14 -14 -14 -14 -14 -14 -14 -14 -14 -14 -14 -15 -15 -15 -15 -15 -15 -15 -16 -16 -15 -15 -15
Height
5722 5720 5717 5714 5709 5705 5703 5701 5701 5699 5698 5697 5698 5699 5700 5701 5703 5705 5706 5708 5709 5710 5711 5713 5714 5717 5722 5728 5733 5736 5740 5744 5749 5753 5758 5764 5770 5774 5777 5781 5786 5792 5796
5721 5718 5716 5713 5709 5707 5704 5703 5702 5701 5700 5700 5701 5703 5705 5706 5707 5708 5710 5712 5713 5714 5714 5716 5717 5719 5725 5732 5735 5740 5744 5746 5751 5756 5760 5765 5770 5775 5779 5783 5787 5792 5795
5719 5717 5716 5713 5711 5709 5706 5705 5704 5703 5703 5703 5703 5705 5708 5710 5712 5713 5714 5716 5717 5717 5718 5720 5721 5722 5728 5733 5738 5742 5747 5750 5754 5759 5763 5767 5772 5776 5780 5785 5788 5791 5794
5718 5718 5716 5715 5712 5711 5708 5707 5706 5706 5706 5706 5707 5708 5711 5713 5716 5717 5719 5720 5722 5722 5723 5724 5726 5728 5732 5735 5742 5745 5749 5753 5757 5761 5765 5769 5773 5777 5782 5785 5788 5791 5793
5720 5719 5717 5716 5714 5712 5711 5709 5708 5708 5709 5709 5710 5711 5713 5715 5717 5720 5723 5724 5726 5728 5728 5729 5731 5734 5737 5742 5745 5749 5751 5756 5759 5764 5767 5771 5775 5779 5783 5786 5789 5791 5794
5721 5720 5719 5717 5715 5714 5713 5711 5711 5711 5712 5712 5712 5713 5715 5717 5719 5721 5724 5727 5730 5731 5733 5734 5736 5737 5739 5743 5747 5750 5753 5757 5761 5765 5769 5773 5777 5780 5783 5785 5787 5790 5791
5723 5722 5721 5719 5717 5715 5715 5713 5713 5712 5713 5714 5714 5715 5716 5718 5721 5724 5726 5729 5731 5735 5737 5739 5740 5742 5744 5747 5749 5752 5756 5759 5763 5767 5772 5776 5778 5781 5782 5784 5786 5789 5791
5725 5724 5723 5722 5720 5717 5717 5717 5715 5715 5716 5716 5716 5716 5717 5719 5722 5725 5728 5731 5734 5736 5740 5742 5744 5746 5748 5750 5753 5756 5758 5762 5766 5769 5774 5777 5779 5780 5783 5786 5788 5790 5792
5727 5726 5725 5725 5724 5721 5721 5720 5720 5719 5719 5718 5717 5716 5717 5719 5722 5726 5729 5732 5736 5739 5743 5745 5747 5749 5751 5753 5755 5758 5762 5765 5769 5773 5776 5778 5780 5782 5785 5785 5789 5791 5792
5728 5727 5728 5728 5728 5726 5725 5725 5724 5724 5723 5722 5721 5720 5721 5722 5724 5728 5732 5735 5737 5741 5744 5747 5747 5751 5754 5756 5759 5762 5766 5769 5772 5775 5778 5780 5780 5782 5784 5787 5789 5789 5788
5729 5729 5730 5730 5731 5730 5729 5729 5729 5729 5729 5728 5727 5726 5727 5729 5730 5731 5734 5736 5738 5741 5745 5750 5753 5755 5758 5761 5763 5767 5770 5772 5774 5777 5779 5780 5782 5783 5785 5786 5786 5786 5785
5731 5731 5731 5732 5733 5734 5734 5733 5733 5734 5734 5734 5735 5735 5734 5735 5737 5736 5739 5741 5742 5744 5749 5753 5756 5759 5762 5765 5768 5770 5773 5775 5777 5779 5780 5782 5783 5784 5784 5784 5783 5782 5778
5732 5732 5733 5734 5734 5735 5736 5737 5737 5738 5739 5740 5740 5741 5741 5742 5744 5745 5746 5748 5750 5752 5755 5758 5761 5763 5765 5768 5770 5772 5774 5776 5777 5778 5780 5780 5781 5780 5779 5778 5777 5775 5774
5731 5733 5734 5735 5736 5737 5738 5739 5741 5742 5743 5743 5745 5746 5747 5748 5749 5750 5752 5754 5756 5758 5760 5762 5764 5766 5768 5769 5771 5772 5774 5774 5775 5776 5776 5775 5775 5774 5773 5772 5771 5770 5769
5731 5733 5734 5736 5737 5738 5740 5742 5743 5745 5746 5747 5749 5750 5751 5752 5754 5755 5757 5758 5760 5761 5763 5764 5766 5767 5768 5768 5769 5770 5770 5771 5771 5772 5772 5771 5770 5770 5769 5768 5767 5765 5763
5730 5732 5734 5735 5737 5739 5741 5742 5745 5747 5749 5750 5751 5753 5754 5755 5756 5757 5758 5759 5761 5762 5763 5765 5766 5766 5767 5767 5767 5767 5767 5767 5767 5767 5767 5766 5766 5765 5763 5762 5761 5759 5756
5728 5730 5733 5734 5737 5739 5740 5742 5745 5747 5750 5752 5753 5754 5755 5757 5758 5759 5759 5760 5761 5762 5763 5764 5764 5765 5765 5765 5765 5764 5764 5763 5763 5762 5762 5761 5761 5760 5758 5757 5754 5750 5747
5726 5728 5730 5732 5735 5737 5739 5742 5743 5746 5748 5750 5752 5754 5756 5757 5758 5759 5760 5760 5760 5761 5761 5761 5762 5762 5762 5762 5762 5761 5760 5759 5759 5759 5758 5757 5756 5754 5752 5749 5746 5742 5739
5723 5725 5727 5729 5731 5733 5736 5739 5741 5743 5745 5747 5749 5751 5753 5754 5756 5757 5757 5758 5758 5758 5759 5759 5759 5759 5760 5760 5759 5759 5757 5756 5755 5754 5753 5752 5750 5747 5744 5741 5738 5734 5729
5719 5721 5723 5725 5726 5729 5732 5734 5737 5739 5741 5743 5744 5746 5748 5750 5751 5752 5754 5754 5754 5754 5755 5755 5755 5755 5756 5756 5755 5754 5753 5752 5750 5748 5746 5744 5741 5739 5736 5733 5729 5725 5720
5713 5715 5718 5720 5722 5724 5727 5729 5731 5733 5735 5737 5739 5741 5743 5745 5746 5747 5747 5748 5748 5748 5748 5749 5750 5750 5750 5749 5749 5748 5747 5746 5743 5741 5738 5736 5733 5730 5727 5725 5721 5715 5711
5708 5710 5711 5714 5716 5719 5722 5724 5726 5727 5729 5731 5733 5734 5736 5737 5739 5740 5741 5742 5742 5742 5743 5743 5743 5743 5742 5742 5741 5740 5738 5737 5735 5732 5730 5727 5725 5722 5719 5715 5711 5706 5701
5702 5704 5706 5707 5709 5711 5714 5716 5718 5721 5723 5724 5725 5728 5730 5731 5731 5732 5734 5734 5735 5735 5735 5735 5734 5734 5733 5733 5732 5731 5731 5730 5728 5725 5723 5720 5717 5714 5709 5705 5701 5696 5689
5694 5698 5700 5702 5703 5705 5706 5708 5711 5713 5715 5717 5718 5721 5722 5725 5726 5726 5725 5726 5727 5727 5727 5727 5727 5727 5727 5726 5725 5724 5724 5722 5719 5716 5713 5710 5707 5703 5699 5695 5689 5684 5676
5684 5686 5690 5694 5697 5699 5700 5702 5704 5705 5706 5709 5711 5712 5714 5715 5717 5719 5717 5717 5719 5720 5720 5720 5720 5720 5720 5718 5717 5715 5713 5711 5708 5705 5701 5699 5695 5691 5687 5682 5678 5672 5666
5671 5673 5675 5680 5686 5687 5690 5692 5695 5696 5699 5701 5703 5704 5706 5708 5709 5711 5711 5712 5711 5712 5713 5713 5711 5710 5709 5708 5707 5705 5702 5700 5697 5693 5690 5686 5683 5679 5675 5671 5666 5660 5653
Wind_Speed
16 17 15 16 17 15 12 3 5 8 9 10 11 14 17 18 17 16 15 14 11 12 12 11 11 14 18 21 22 28 29 24 23 15 18 19 18 18 16 20 21 17 16
16 14 13 15 12 11 8 4 7 9 9 10 11 12 18 14 15 17 16 14 14 11 12 14 11 11 23 24 29 26 23 22 19 19 16 15 23 17 20 23 18 8 13
12 11 11 13 10 11 7 7 8 9 10 10 13 15 13 12 16 16 17 15 14 8 16 19 15 17 27 28 22 28 21 16 16 16 19 18 22 21 17 14 17 14 17
11 11 10 10 11 11 11 9 9 10 11 9 11 14 14 13 17 15 15 15 14 14 20 19 18 19 26 30 21 20 18 22 16 19 17 17 23 19 15 11 16 20 17
10 9 9 8 11 9 7 9 10 10 10 10 8 8 11 16 16 14 13 14 13 14 15 18 19 24 21 28 21 20 22 21 13 15 17 21 18 15 12 13 18 14 15
9 9 8 5 8 8 8 7 8 9 8 9 10 8 8 12 15 14 17 15 13 15 16 15 17 15 23 28 23 17 24 22 17 13 18 17 17 18 10 12 16 10 3
8 9 10 9 7 8 8 10 12 10 12 10 11 8 8 9 12 16 17 16 15 16 14 13 12 15 17 17 18 17 20 17 19 22 19 17 15 16 12 8 4 4 3
9 11 12 12 11 12 10 11 14 14 13 10 7 6 8 10 11 14 17 16 15 13 15 16 18 12 15 14 15 14 17 17 16 16 12 10 10 9 7 4 3 4 5
7 10 13 12 16 18 16 17 16 16 13 13 12 10 9 13 12 13 16 17 17 14 15 17 13 11 14 12 16 20 20 19 16 14 13 10 7 7 7 5 5 6 8
6 9 10 12 13 16 16 16 17 16 17 19 21 18 20 15 14 14 15 14 12 12 11 11 12 12 14 17 19 18 17 16 15 14 12 9 7 5 3 6 9 11 11
5 7 9 10 11 13 13 15 17 18 21 23 22 21 22 20 21 21 16 13 16 16 18 19 17 17 16 17 17 16 14 14 12 9 6 4 5 6 7 10 12 13 14
5 7 8 7 9 10 11 11 14 17 20 20 23 25 26 26 25 24 22 17 19 23 22 19 20 18 17 17 16 14 12 9 7 7 7 7 8 9 9 10 13 15 16
4 5 6 4 4 6 7 7 9 14 16 18 18 20 23 24 23 24 24 21 22 25 22 19 17 14 13 12 11 10 9 9 8 6 5 5 6 8 10 13 15 17 19
3 4 4 5 4 6 8 10 11 12 14 16 18 21 21 22 23 22 21 20 19 17 15 14 12 10 8 6 5 3 3 4 5 5 5 6 8 10 14 16 19 22 24
4 5 4 5 7 7 10 12 13 15 16 19 20 21 21 21 20 19 17 14 13 12 11 9 7 6 4 2 1 3 5 6 7 8 9 10 12 15 18 20 23 25 25
7 5 7 7 8 9 11 13 14 15 17 18 17 15 14 13 13 13 11 8 7 6 5 3 2 0 2 4 6 9 11 12 12 12 13 14 16 19 22 24 25 26 27
13 10 8 9 10 11 11 14 14 13 14 12 10 8 9 8 7 6 5 4 2 0 1 1 2 4 5 7 10 13 16 17 17 17 17 18 20 22 24 25 27 30 32
12 14 14 13 13 13 13 13 14 14 13 14 14 11 10 8 5 5 5 7 9 7 7 9 9 8 8 8 13 13 15 17 20 22 22 23 24 24 23 22 27 31 35
14 15 16 17 16 17 16 16 16 15 15 14 14 16 15 14 14 13 13 14 16 13 11 11 11 12 11 11 13 16 19 18 18 18 21 25 26 26 26 31 33 40 40
16 18 19 20 20 20 19 18 18 18 18 19 19 19 18 19 19 19 19 20 18 16 15 14 13 12 15 19 19 21 21 22 25 26 27 33 36 36 36 36 36 37 42
20 21 21 22 22 21 20 20 20 21 22 22 23 22 23 23 22 21 19 17 17 19 18 16 17 19 20 21 21 22 21 25 27 27 29 33 34 33 35 39 43 44 43
26 26 25 23 23 24 24 25 25 25 25 26 26 25 24 23 21 20 19 19 20 21 22 24 26 25 25 25 26 26 27 24 26 30 31 34 35 35 39 42 42 48 48
29 31 30 28 26 26 26 25 26 26 26 26 27 27 25 25 25 24 25 25 24 25 29 29 30 28 28 28 26 26 26 28 27 30 33 34 36 40 43 44 46 47 46
34 34 36 35 32 30 28 26 26 26 27 27 28 27 28 29 31 32 32 32 31 30 29 29 28 26 26 25 25 27 29 30 32 34 36 38 41 45 43 45 49 51 37
40 39 39 40 38 34 32 29 27 26 25 26 30 32 32 30 28 28 28 29 31 30 27 25 25 25 27 29 31 33 34 35 37 38 40 43 44 47 47 47 47 50 56
46 46 45 44 44 41 40 37 32 30 27 26 27 28 29 28 26 26 27 26 24 26 27 26 26 27 29 31 33 36 38 38 40 43 45 47 48 49 48 48 44 53 59
Wind_Direction
340 341 345 348 349 353 345 354 89 73 79 111 121 138 129 125 126 129 139 133 121 110 105 99 104 147 168 167 163 153 151 147 146 140 153 164 168 172 178 159 163 180 194
342 341 351 357 1 5 6 66 90 71 82 105 126 143 143 123 136 133 131 125 116 106 91 95 123 152 163 151 149 153 174 158 164 169 180 171 158 172 160 170 171 185 203
350 359 9 3 19 19 59 67 78 75 84 97 116 144 148 138 138 137 134 125 120 111 107 127 105 136 152 160 160 159 154 180 166 179 175 177 179 177 170 171 197 219 209
13 31 20 38 42 51 71 72 88 86 86 101 119 133 152 139 152 149 141 136 124 96 99 120 130 157 148 167 173 185 181 185 186 184 173 175 182 181 177 189 204 216 222
31 38 32 64 48 55 53 68 89 95 94 97 110 130 133 147 150 159 161 146 127 120 116 112 122 129 155 167 174 182 192 173 180 172 179 168 182 175 178 204 218 219 211
34 81 63 50 27 44 45 54 74 96 111 115 111 120 132 145 155 156 155 153 140 131 129 119 127 112 142 160 168 163 186 195 184 179 161 176 198 194 231 197 193 205 129
67 77 67 51 27 47 57 69 72 88 128 104 109 124 139 155 161 160 160 154 150 142 136 136 141 123 129 142 161 170 168 175 182 177 179 189 201 215 203 188 132 120 172
74 80 65 48 53 85 76 67 79 90 106 116 126 153 151 161 154 165 163 155 158 165 156 135 139 148 141 133 143 142 159 140 141 159 172 179 186 166 128 126 185 210 237
75 69 69 70 72 79 83 95 90 92 91 95 89 106 126 156 156 163 168 166 166 178 154 162 170 127 129 132 127 133 144 147 147 149 146 134 132 141 164 171 212 236 246
71 69 74 81 81 81 82 87 85 87 89 87 92 92 91 108 134 147 156 164 163 161 157 144 126 130 124 129 139 143 138 136 133 137 141 150 150 169 200 237 250 261 276
76 78 87 90 85 84 80 85 93 92 91 90 94 95 96 99 102 113 120 128 152 143 139 121 117 115 115 121 121 117 124 129 130 129 139 169 198 218 235 250 262 276 287
93 85 83 89 94 85 82 82 95 105 105 99 100 98 98 95 91 93 96 107 124 130 126 114 107 109 111 117 123 126 123 129 150 173 193 207 224 241 260 274 278 281 290
123 107 103 89 84 89 86 94 110 110 111 110 106 105 106 108 110 108 106 100 89 90 97 106 115 121 127 131 135 144 158 176 192 204 215 231 252 271 277 281 288 296 300
174 160 137 138 127 108 111 115 116 120 117 114 111 110 105 102 101 101 101 103 105 106 109 112 116 121 129 131 130 153 192 219 240 255 271 281 291 299 301 301 301 297 295
160 187 181 164 161 148 135 133 131 129 126 123 118 113 109 104 98 94 91 91 93 96 99 103 107 110 115 128 212 263 271 277 285 288 290 295 300 297 294 295 296 297 298
188 180 192 193 188 177 166 159 153 149 146 143 140 134 123 110 94 82 79 82 86 93 100 106 114 167 277 277 272 274 279 284 288 292 293 293 296 298 300 301 302 302 303
198 198 193 201 203 202 197 183 179 175 176 180 184 176 158 141 117 85 53 23 341 116 68 358 279 265 270 274 284 290 292 292 293 292 292 293 292 293 299 305 306 304 302
213 204 201 202 211 211 216 215 207 204 204 209 219 223 221 220 232 257 279 298 316 285 285 291 289 278 288 288 312 305 321 316 293 291 294 295 297 299 303 315 322 324 319
219 220 213 211 213 215 218 223 225 223 224 225 225 231 237 248 263 273 278 287 302 283 275 285 279 266 264 289 295 315 307 308 315 313 309 307 300 294 296 306 314 314 311
229 222 220 221 218 216 215 220 229 237 239 238 241 244 248 255 262 270 279 288 285 277 280 284 287 289 279 288 294 309 302 303 305 308 312 318 311 301 298 302 311 316 318
226 225 224 226 226 220 219 223 228 234 239 243 247 251 255 259 266 270 272 269 269 271 268 272 286 290 294 289 282 303 299 299 299 297 301 304 302 299 301 304 304 313 308
231 227 225 223 225 227 227 231 236 239 242 245 249 253 257 256 256 259 263 263 267 267 267 281 288 289 288 289 287 292 302 299 295 296 304 306 308 309 306 308 312 311 307
234 227 227 225 224 227 232 233 236 239 240 242 245 248 253 252 253 258 261 257 260 263 270 279 283 285 288 291 292 293 298 301 304 305 308 306 309 308 308 307 308 305 306
245 235 232 231 226 227 228 229 237 242 244 244 246 247 249 256 261 262 262 261 263 264 269 276 281 284 289 293 298 300 301 302 301 300 304 308 308 309 306 307 309 305 309
246 243 240 238 234 232 233 237 239 240 241 244 246 248 249 252 257 260 259 260 265 268 273 276 279 287 293 297 299 298 300 301 301 301 302 305 305 306 306 311 309 306 308
241 242 242 240 237 234 234 234 236 238 244 244 244 243 248 249 250 255 264 273 276 278 279 281 282 283 285 287 291 294 296 296 299 299 300 301 303 306 304 307 308 302 297